Wind_Speed
25 26 25 27 30 31 31 31 32 33 33 33 33 33 34 34 33 34 36 36 37 38 40 40 41 41 42 42 43 43 43 44 45 45 45 46 46 47 48 48 49 49 50 51 52 52 53 54 54 55 55 56 57 58 58 58 59 59 59 59 58 58 58 59 59 59 60 60 60 61 61 62 62 63 63 64 65 65 66 66 67 67 68 68 68 69
26 26 27 29 30 30 31 31 32 33 33 33 33 33 33 34 34 35 36 37 38 40 42 42 42 43 43 43 43 43 44 44 45 45 45 46 47 48 48 49 50 51 52 53 53 54 54 54 55 55 56 57 58 59 58 59 59 59 58 58 58 58 58 59 59 60 60 60 61 61 61 61 62 63 63 64 65 66 66 67 67 68 68 69 69 69
26 27 29 31 31 31 31 31 31 32 33 33 33 33 33 34 35 36 36 37 39 40 42 42 43 44 44 44 44 44 44 44 45 45 46 47 48 49 50 51 52 53 54 54 55 54 54 54 55 55 56 57 58 59 58 58 57 56 56 57 57 58 58 59 59 60 60 61 61 62 62 62 63 63 64 65 65 66 66 67 68 68 69 69 70 71
26 27 29 30 30 31 31 31 32 32 32 33 33 34 34 35 36 36 37 38 39 41 42 42 43 44 44 44 44 45 45 45 46 47 48 49 50 51 52 53 54 55 55 54 54 53 53 54 55 55 56 57 57 56 56 55 55 55 56 56 57 58 58 59 59 60 61 62 62 63 63 64 64 64 65 65 65 66 67 67 68 69 70 71 72 72
26 27 28 28 29 30 30 31 32 32 33 33 34 35 36 36 37 38 38 39 40 41 41 41 42 44 44 44 45 45 46 47 48 49 50 51 52 53 54 55 55 55 54 53 53 53 53 54 54 54 55 55 54 54 53 53 54 55 55 56 57 57 58 59 60 61 62 63 63 63 64 64 64 65 65 66 66 67 68 69 70 71 72 73 74 74
26 27 27 28 28 29 30 31 32 33 33 34 35 36 36 37 38 38 38 39 40 40 40 41 42 44 45 46 47 48 49 50 51 52 52 53 54 54 55 54 54 53 53 52 52 52 53 53 53 53 53 53 52 53 53 54 54 54 55 56 57 58 59 60 61 62 63 63 64 64 64 64 65 65 66 67 68 68 69 70 71 72 73 74 75 75
27 27 27 28 28 29 30 31 32 33 34 34 35 36 37 37 38 38 38 38 39 40 40 41 43 46 47 48 49 50 51 52 53 53 53 54 54 54 54 53 52 52 52 51 51 51 51 51 51 51 51 52 52 53 54 54 55 55 56 57 58 59 61 61 62 63 63 64 64 64 64 65 66 66 66 67 68 69 70 70 71 72 73 74 76 76
27 27 27 28 29 30 31 32 32 33 34 35 35 36 36 37 37 37 38 39 40 41 42 44 46 48 50 51 51 52 53 53 53 53 54 54 53 53 52 52 51 51 50 49 49 49 49 49 49 50 51 52 53 54 54 55 56 56 57 58 59 60 61 63 63 63 64 64 64 65 65 66 67 67 68 68 69 70 71 72 72 73 74 75 76 77
27 27 28 29 29 30 31 32 32 33 34 34 35 35 36 36 37 38 39 41 42 44 45 47 48 50 51 52 52 52 53 53 53 53 53 53 52 52 51 50 49 48 47 47 47 47 48 49 49 50 51 52 54 55 55 56 57 57 58 59 59 60 63 64 64 64 64 64 65 66 66 67 68 69 70 71 72 72 73 74 74 75 76 77 78 80
28 28 29 29 30 31 31 32 32 33 33 34 35 35 36 37 38 40 41 43 45 47 48 48 49 50 51 52 51 52 53 53 53 53 53 52 50 49 48 46 45 45 45 45 46 47 48 49 50 51 52 53 54 55 55 56 57 57 57 58 59 61 64 65 65 64 64 65 66 67 68 69 70 72 72 73 74 75 76 77 78 79 80 81 82 83
28 29 29 30 30 31 31 32 32 33 34 35 36 37 39 40 41 43 44 46 47 48 48 48 49 49 50 51 51 52 52 53 53 52 51 49 47 45 44 44 43 44 45 46 47 48 49 50 51 52 53 54 55 55 56 56 57 57 58 60 62 64 65 65 65 66 67 68 69 70 71 73 74 75 76 77 78 79 80 81 82 83 83 84 85 86
29 30 31 31 31 32 32 33 34 35 36 37 38 40 42 43 45 46 47 47 47 47 47 48 48 48 49 51 51 51 51 51 50 49 47 46 44 44 44 44 44 44 46 47 48 49 50 51 52 53 54 55 56 56 56 57 58 60 62 63 65 65 66 67 68 69 70 71 72 74 75 76 78 79 80 81 82 83 84 84 85 85 86 87 88 88
31 31 32 32 33 33 34 35 36 38 39 40 41 43 45 46 47 47 47 46 46 46 46 47 46 47 49 50 50 49 49 49 48 46 45 45 44 44 45 45 46 46 48 49 50 51 51 52 53 54 55 56 56 57 58 60 61 62 63 64 65 67 68 69 71 72 73 74 76 77 78 79 81 81 83 84 85 86 87 88 89 89 90 90 91 92
31 32 32 33 34 35 36 38 39 40 42 43 44 45 46 46 47 47 46 46 46 45 45 46 46 47 49 48 47 47 47 47 46 46 46 46 45 46 46 47 48 49 50 51 51 52 52 53 54 55 56 57 58 59 61 62 62 63 64 66 68 69 70 72 73 74 76 77 78 80 81 82 83 84 86 87 89 91 92 93 94 94 95 96 96 97
32 33 34 35 36 38 39 40 41 43 44 45 45 45 45 45 45 46 45 45 44 43 44 44 44 46 47 46 46 46 46 46 47 47 47 47 47 48 48 49 50 51 51 52 53 53 54 55 56 57 58 59 60 61 62 63 64 65 67 69 71 72 73 74 76 77 78 80 81 83 84 86 87 89 90 92 94 95 97 98 99 100 101 101 102 102
35 36 37 38 39 40 41 42 43 44 44 45 44 44 43 43 42 42 42 42 41 41 42 41 42 44 45 45 46 46 46 47 47 47 48 48 48 49 49 50 51 51 52 53 53 54 55 56 57 58 59 60 61 62 64 66 67 69 70 71 73 74 76 77 79 80 82 83 85 87 89 90 92 94 95 96 98 99 101 102 103 105 106 106 107 107
39 39 40 41 41 43 43 43 44 43 42 43 42 41 40 39 39 39 39 39 39 40 41 41 41 43 44 46 47 47 47 47 48 48 48 48 48 48 49 50 51 52 53 54 55 55 56 57 58 59 60 62 64 65 67 69 70 71 73 74 76 77 79 81 82 84 86 87 89 91 93 94 96 98 99 101 102 103 104 105 107 108 108 108 108 108
41 40 40 41 42 42 42 42 41 40 39 38 38 38 37 37 37 37 37 38 38 40 42 42 43 45 46 47 47 47 47 47 46 46 46 46 47 47 48 50 52 53 54 55 55 56 57 58 60 61 63 65 66 68 69 71 72 74 76 78 79 81 83 84 86 87 89 91 92 94 96 97 99 100 102 104 105 106 107 107 108 108 107 106 105 104
41 40 37 38 38 38 38 37 37 36 35 35 35 35 36 36 36 36 37 38 40 41 44 45 46 47 47 47 46 46 46 45 44 45 45 46 47 48 50 51 53 54 55 56 57 58 60 62 63 64 65 67 68 70 71 73 75 77 79 81 82 84 86 87 89 91 92 94 96 97 99 100 102 103 105 106 107 108 108 107 106 105 103 101 99 96
36 35 33 32 34 34 33 33 33 34 34 34 34 34 35 35 36 37 39 40 42 43 45 46 47 47 46 45 45 44 44 44 44 45 46 47 48 49 51 52 54 55 56 58 60 61 63 64 65 66 67 69 71 73 74 76 77 79 81 82 84 86 88 90 92 93 95 97 99 101 102 104 106 107 108 108 108 107 105 102 100 97 95 92 89 88
32 32 31 30 32 32 32 32 32 33 33 34 34 34 35 37 38 40 41 41 42 43 44 45 45 45 44 43 43 43 43 44 44 45 46 48 49 51 52 54 56 57 58 60 62 63 64 65 67 68 70 72 74 75 77 78 80 81 83 85 87 89 91 93 95 96 98 100 102 104 106 106 107 106 105 104 102 99 97 94 91 89 87 84 83 82
31 31 30 30 31 32 32 33 33 34 34 35 35 36 37 39 40 41 42 41 41 42 42 43 44 44 42 41 41 42 42 43 44 45 47 49 51 53 54 56 57 58 60 61 63 64 65 67 69 71 73 74 76 77 78 80 82 84 85 88 90 92 94 96 97 100 102 103 105 105 105 104 103 101 98 95 93 90 88 86 85 83 82 81 80 80
30 31 31 31 32 33 33 34 35 35 36 37 37 38 38 39 40 40 41 41 41 41 40 41 43 43 40 40 40 41 42 44 45 47 49 51 53 55 56 57 58 59 61 62 64 66 68 70 71 73 74 76 77 79 80 82 84 86 88 90 92 95 97 99 101 103 104 105 104 104 102 99 96 93 90 88 85 84 82 82 81 81 81 80 79 79
31 32 32 33 34 35 36 36 36 37 37 38 38 37 38 38 39 39 40 40 40 40 39 40 41 41 39 40 42 43 45 46 48 50 52 53 54 55 56 58 59 61 63 65 67 68 70 71 73 74 76 78 80 82 84 86 88 90 92 94 97 99 101 103 104 105 105 103 101 98 95 92 89 86 84 83 82 81 80 80 81 81 81 81 80 80
33 34 35 35 36 36 36 36 36 37 37 38 37 37 37 37 37 38 38 38 39 38 38 39 39 39 40 42 43 45 47 49 51 52 53 55 56 57 58 60 62 64 66 67 68 70 72 73 75 78 80 82 84 86 88 89 91 93 95 98 100 102 103 104 104 102 100 97 94 91 88 86 84 82 81 81 81 80 80 81 81 82 82 83 83 83
35 36 37 38 38 37 36 36 36 36 37 37 37 36 36 36 36 37 37 37 37 37 37 38 39 41 42 44 46 47 49 50 52 53 54 56 58 59 61 63 64 66 67 69 71 73 75 77 79 81 83 85 87 88 90 92 94 96 98 100 102 103 102 101 99 96 92 89 87 85 83 82 81 81 81 81 81 81 81 82 82 82 83 84 85 85
36 36 37 38 37 37 36 36 36 37 37 37 36 36 35 36 36 37 37 37 37 38 39 40 42 43 45 46 47 49 50 51 53 54 56 57 59 61 63 64 66 68 70 72 74 76 77 79 81 83 84 86 88 90 93 95 97 99 100 101 101 100 98 95 91 88 86 84 82 81 81 80 80 81 81 81 81 81 82 82 83 83 84 85 87 87
35 35 36 37 37 37 36 36 36 37 36 36 36 35 36 36 36 36 36 37 37 39 40 42 43 45 46 47 49 50 51 53 54 56 58 59 61 62 64 66 68 70 72 74 76 78 79 81 83 84 86 88 90 93 95 97 98 99 99 98 96 93 90 87 84 83 81 81 81 80 81 81 81 81 81 82 82 83 84 85 86 87 88 89 90 91
35 35 35 36 36 36 36 36 36 35 35 35 35 36 36 36 36 36 37 38 39 41 42 43 44 46 47 48 50 51 53 54 56 58 60 62 63 65 66 68 70 72 74 76 78 80 82 83 85 87 89 91 93 95 96 97 98 97 94 91 88 85 83 81 81 80 81 81 81 81 81 81 82 82 83 84 86 87 88 89 90 91 92 93 94 94
35 35 36 36 36 35 35 35 35 35 35 35 35 36 37 37 37 38 39 40 42 43 43 44 45 47 48 50 51 53 55 56 58 60 62 64 65 67 69 71 73 75 77 78 80 82 84 86 88 90 91 93 95 96 96 96 94 91 87 84 82 80 80 80 80 81 81 81 81 82 82 83 84 85 87 88 90 91 92 93 93 94 95 95 96 96
35 35 35 36 35 35 35 35 35 35 35 35 36 37 37 38 39 40 41 42 43 43 44 44 46 48 50 51 53 55 57 58 60 62 64 66 67 69 71 73 75 77 79 81 83 85 87 89 90 91 93 94 95 95 93 90 86 83 81 80 79 80 80 81 81 81 81 82 82 83 85 86 87 89 90 92 93 94 95 95 96 96 95 95 94 93
35 35 35 36 35 35 35 35 35 35 35 35 36 37 39 40 41 42 42 43 43 43 44 46 48 50 51 53 55 57 59 61 63 65 66 68 69 71 73 75 77 79 81 83 85 87 88 90 91 92 93 93 92 90 86 83 80 78 78 78 80 81 81 82 82 82 82 83 85 86 88 89 90 92 93 94 95 96 96 95 95 94 93 91 89 88
34 35 35 35 35 35 35 35 35 36 36 36 37 39 40 41 41 41 41 42 43 44 46 49 50 52 54 55 57 59 61 63 64 67 69 71 73 75 76 78 80 82 84 85 86 87 88 89 90 91 90 88 85 82 80 79 78 78 78 79 80 81 81 81 82 83 84 85 88 90 91 92 93 94 95 95 96 95 94 93 91 89 87 85 83 81
35 34 34 34 34 34 35 35 36 37 37 38 39 40 41 40 40 41 41 43 45 47 49 51 52 54 55 57 59 60 62 64 67 69 72 74 76 77 79 80 82 83 85 86 86 87 88 89 89 87 84 81 79 77 77 77 78 79 80 81 81 80 81 82 83 85 86 88 91 93 94 94 95 95 95 95 94 92 90 87 85 83 81 79 76 75
35 34 34 34 34 34 35 36 37 38 39 40 41 41 41 41 42 42 43 45 47 49 51 53 54 56 57 59 61 62 64 66 69 71 74 76 78 79 80 82 83 84 85 85 87 88 88 87 84 81 78 77 77 77 77 78 79 80 80 81 81 81 82 84 85 88 90 91 93 94 95 95 95 94 93 92 89 87 84 82 79 76 73 71 70 69
34 34 34 34 34 35 36 38 39 39 40 40 41 41 42 43 43 44 45 46 49 51 53 55 56 58 60 61 63 64 66 68 70 73 75 76 78 80 81 82 83 84 85 86 87 86 84 82 79 77 76 76 77 79 79 80 81 81 81 81 82 83 85 86 88 90 92 93 94 95 95 95 94 92 89 87 84 81 78 75 71 68 66 64 64 64
34 34 35 35 36 37 38 39 39 39 40 40 41 42 43 44 46 47 48 50 52 54 55 57 58 60 61 63 64 66 67 68 70 73 75 76 78 79 81 83 84 84 85 85 84 82 79 76 75 76 76 78 79 81 82 82 82 82 82 83 84 86 87 89 90 91 92 94 94 94 94 92 90 87 84 81 78 74 71 67 63 61 60 60 60 61
34 35 36 37 38 38 39 39 39 39 40 41 42 44 45 47 49 51 53 54 55 56 57 59 60 62 63 64 66 68 69 69 70 73 76 77 78 79 81 82 83 83 82 81 79 76 75 74 75 76 79 80 82 83 83 83 83 84 85 86 88 89 90 91 91 92 93 93 93 92 90 88 85 82 78 75 71 66 62 59 56 55 55 57 58 59
36 36 37 38 38 38 38 39 40 40 41 42 43 45 48 50 52 54 56 56 56 58 59 60 62 63 65 67 68 70 72 73 73 74 76 78 79 79 80 79 79 79 77 76 75 74 74 75 76 78 80 81 82 83 83 84 84 86 87 89 90 91 92 92 92 93 92 91 89 87 85 82 79 76 73 68 63 58 54 52 50 50 52 54 56 56
36 36 37 36 36 37 38 39 40 41 42 43 45 48 50 52 54 56 57 57 57 59 61 62 63 65 67 69 70 72 75 77 77 76 76 76 77 78 78 77 76 75 73 72 73 74 75 77 78 79 80 80 81 82 83 84 86 88 89 90 91 92 93 93 92 91 89 87 85 82 79 76 73 69 65 61 55 51 48 47 46 47 49 51 53 53
35 35 36 36 36 37 39 40 41 43 44 46 48 50 52 53 54 56 57 58 59 60 62 63 65 67 69 71 73 74 75 76 76 75 74 74 74 75 75 74 73 73 72 73 73 75 76 78 79 80 81 81 82 83 84 86 87 88 89 91 92 92 92 91 89 87 85 83 80 76 72 68 64 61 57 53 49 45 44 44 44 45 47 49 49 49
36 36 36 37 38 40 41 42 43 45 47 49 51 52 53 54 55 56 58 59 60 61 63 65 68 70 72 73 74 74 73 73 73 73 73 73 72 71 71 71 71 71 72 74 75 76 77 78 79 80 81 83 85 86 87 87 88 89 90 91 91 90 88 86 84 82 80 77 73 69 63 59 56 53 50 46 43 41 41 42 42 43 45 47 46 46
37 38 39 40 41 42 44 46 47 48 49 51 52 53 53 55 56 57 58 60 62 64 66 68 71 73 73 73 72 71 70 70 70 70 70 70 69 69 69 70 71 72 73 74 76 77 77 78 78 80 83 85 87 88 89 89 90 90 90 89 88 86 84 81 79 76 72 69 64 60 55 51 49 47 44 41 40 40 40 39 39 42 44 45 44 43
39 40 41 43 44 45 47 49 50 51 52 52 53 54 55 56 58 59 60 62 64 67 69 71 73 74 74 73 71 70 69 68 68 68 67 67 67 68 69 70 71 73 74 75 76 77 78 79 80 82 84 86 88 89 90 91 90 89 88 86 84 82 78 75 71 68 64 59 55 51 48 45 44 42 39 38 38 39 38 36 37 39 42 43 42 42
40 41 43 44 46 48 49 50 51 52 53 53 54 55 56 57 59 60 62 64 66 69 72 74 74 74 74 72 70 68 67 66 65 65 65 65 66 68 69 71 72 74 75 76 77 78 79 81 82 83 85 87 89 90 90 90 88 86 84 82 79 76 72 68 64 60 56 51 47 44 42 40 39 37 37 37 38 38 35 33 35 37 39 40 41 41
42 43 45 46 48 50 51 52 53 54 54 54 55 56 57 59 60 61 63 66 69 72 74 75 75 74 72 70 67 66 64 63 62 63 64 65 67 68 70 71 73 74 76 77 78 79 80 82 83 84 85 87 88 88 87 86 84 81 79 76 73 69 66 62 58 53 48 44 42 40 38 36 34 34 35 36 37 36 34 32 33 35 37 38 39 40
45 47 48 49 50 52 53 53 54 54 55 55 56 57 59 60 61 63 65 68 71 73 75 75 74 72 69 67 65 63 62 61 61 61 63 65 67 69 70 72 73 75 76 78 79 81 82 82 83 84 86 86 86 85 83 81 78 75 72 70 67 64 60 56 51 46 42 40 38 37 35 32 31 32 33 34 34 34 33 32 32 34 35 35 37 38
48 49 50 51 52 53 54 54 54 54 55 56 57 58 59 61 62 64 67 69 72 74 74 74 71 68 66 64 63 61 60 60 61 62 64 66 67 69 71 73 74 75 77 79 80 82 83 83 84 85 85 84 82 80 77 75 72 69 66 64 62 60 55 49 44 41 39 37 36 34 32 30 30 30 30 31 33 34 32 29 30 32 33 33 34 35
50 51 52 53 53 54 55 55 55 55 56 57 59 59 60 61 63 66 68 70 72 73 74 72 69 66 64 63 61 60 60 61 62 64 65 67 68 70 72 73 75 76 78 79 81 82 83 84 85 84 83 80 78 74 71 68 65 63 62 61 60 57 52 44 39 38 37 36 34 32 29 29 29 28 28 28 31 33 33 29 27 29 31 32 33 34
52 53 54 55 55 56 56 56 57 58 58 59 60 61 61 63 65 67 69 71 72 73 72 69 66 64 63 62 61 60 60 61 63 64 66 68 70 71 72 74 75 77 79 80 81 82 84 84 84 82 79 76 72 69 66 63 61 59 59 60 59 56 49 42 37 36 36 35 32 29 27 26 26 26 26 27 28 30 33 32 29 28 29 30 31 33
53 54 55 56 57 57 57 58 59 60 60 61 62 62 62 64 66 68 69 71 72 72 70 67 64 63 62 61 61 61 61 62 63 64 66 68 70 72 74 75 77 78 79 80 81 82 83 83 81 78 74 71 67 64 62 59 58 58 58 59 59 55 48 41 37 36 36 34 30 27 26 25 25 25 25 27 27 27 29 31 32 30 28 28 29 31
Wind_Direction
274 275 276 274 273 275 276 276 274 274 274 273 272 272 273 273 273 273 274 276 276 276 275 275 276 275 275 274 274 274 274 275 275 276 277 278 279 279 280 280 280 280 280 280 281 280 280 280 279 278 278 277 277 277 277 277 277 278 278 278 278 278 278 278 278 278 277 277 277 277 276 276 276 276 276 276 277 277 277 277 277 278 278 278 278 278
275 275 275 273 274 276 276 275 275 274 273 273 273 273 273 274 273 273 274 275 275 275 276 276 276 275 275 275 276 276 276 276 276 277 278 278 279 279 280 281 281 281 281 281 282 281 281 280 279 279 278 278 278 278 278 278 278 278 278 278 278 278 278 278 277 277 277 277 277 277 277 277 277 277 277 277 277 277 278 278 278 278 278 278 278 278
277 276 274 275 276 275 275 275 275 274 274 274 274 274 274 274 274 274 275 275 274 274 275 276 277 277 277 278 278 278 278 278 278 279 279 279 279 279 280 280 281 281 282 282 282 281 281 280 279 278 278 278 278 279 279 279 279 278 278 278 278 278 277 277 277 277 277 277 277 277 277 277 277 277 277 277 277 277 277 277 278 278 278 279 279 279
278 276 275 275 275 275 275 275 274 274 275 275 276 276 276 275 275 275 275 275 275 276 277 278 279 279 279 280 280 281 281 281 281 280 280 281 281 281 281 281 281 282 282 282 282 281 280 279 278 278 279 279 279 280 280 279 279 278 279 279 279 279 279 279 279 279 279 279 279 279 279 279 278 278 278 278 278 278 278 278 278 279 279 279 279 279
279 278 276 276 275 276 276 275 275 276 276 277 277 277 277 277 277 277 277 278 278 279 280 281 282 281 281 281 282 282 283 283 282 283 283 283 283 283 283 283 284 284 283 282 282 281 280 280 280 281 280 281 281 281 280 280 281 281 281 281 281 280 280 280 280 280 280 280 280 280 280 280 280 280 280 280 280 280 280 280 280 280 280 280 280 280
282 280 279 278 278 277 277 277 278 278 278 278 278 278 278 278 279 280 280 281 282 283 283 284 285 284 283 284 284 284 284 284 285 285 285 285 285 285 285 285 285 284 283 283 283 282 282 282 282 282 282 282 282 282 283 283 283 283 283 282 282 281 281 281 281 281 281 281 281 281 281 280 280 281 281 281 281 281 281 282 282 282 282 282 282 281
284 283 282 282 281 280 280 280 280 280 280 280 280 280 281 281 282 283 284 284 284 285 285 286 286 286 285 285 286 286 286 286 286 286 286 287 287 287 286 286 285 285 285 285 284 283 284 283 283 283 283 283 284 284 284 284 284 284 283 283 282 282 281 281 282 281 281 281 281 282 282 282 282 281 282 282 282 282 282 282 283 283 283 283 283 283
287 286 286 285 284 283 283 282 282 282 282 282 282 282 283 284 285 286 286 286 286 287 287 287 288 287 287 287 287 287 287 287 287 287 287 288 288 287 287 287 287 287 286 286 285 285 284 284 283 283 284 284 284 284 284 284 284 283 283 283 283 283 283 283 283 284 284 284 284 284 284 284 284 284 284 283 283 283 283 283 284 284 284 284 284 284
290 289 289 287 286 285 285 284 284 283 283 283 283 284 285 286 286 287 287 288 288 288 288 289 288 288 289 289 289 289 288 288 288 289 288 288 288 288 288 289 288 288 287 286 285 285 284 283 283 284 283 283 283 284 284 284 284 283 284 285 285 285 285 286 286 287 287 287 287 286 286 286 285 285 284 284 284 284 284 284 284 284 284 284 284 284
292 291 290 289 288 287 286 285 285 285 285 285 285 286 287 287 288 289 288 289 289 289 289 289 289 289 290 290 289 289 289 289 289 290 289 290 290 290 290 290 289 288 286 285 284 284 283 284 283 283 283 284 284 284 284 284 284 285 285 285 284 284 286 288 289 288 288 287 286 286 285 285 285 285 285 284 285 285 284 284 284 284 284 284 283 283
293 292 291 290 289 288 288 287 287 287 286 287 287 288 289 289 290 290 290 291 291 290 290 290 290 290 289 289 289 289 289 289 290 291 291 292 292 292 291 289 288 286 285 284 284 284 284 283 283 283 284 284 284 283 283 284 285 285 284 283 283 284 286 287 287 286 286 285 285 285 286 286 286 285 285 285 285 284 284 284 284 284 284 284 284 284
293 293 292 291 291 290 290 289 289 289 289 289 290 290 291 291 292 292 292 292 292 292 291 291 291 290 289 289 290 290 290 290 292 293 293 293 293 291 290 288 287 286 285 285 284 284 284 284 284 283 283 283 283 283 283 284 283 282 282 283 284 285 286 286 285 286 286 286 287 287 287 287 286 286 286 286 286 285 285 285 285 284 284 284 284 283
294 293 293 292 292 291 291 291 290 290 290 291 292 292 293 293 293 293 292 292 292 292 291 291 290 289 289 290 291 291 291 292 293 294 294 294 293 292 290 289 288 288 287 286 285 285 284 283 283 282 282 282 283 283 283 282 282 283 284 285 285 285 285 286 286 287 287 288 288 288 288 288 288 288 288 287 287 287 286 286 285 284 284 283 283 282
294 293 293 292 292 291 291 291 291 291 292 292 293 293 294 294 293 293 293 292 292 292 291 291 290 290 290 291 292 293 293 294 295 295 295 294 293 292 291 290 289 288 287 287 286 284 283 282 282 282 283 283 283 284 284 285 286 286 286 286 286 286 287 287 288 288 288 288 289 289 289 289 289 289 289 289 288 288 287 286 286 285 284 284 283 282
294 294 293 292 292 291 291 291 292 292 292 293 293 293 293 293 293 293 293 292 292 292 292 292 291 291 292 293 293 294 294 295 295 295 294 293 292 291 290 289 289 288 287 286 285 284 283 283 284 284 285 285 286 287 287 288 287 287 287 287 288 288 289 289 289 289 289 289 290 290 290 290 290 290 289 289 289 289 288 288 288 287 286 286 285 285
295 295 294 293 293 292 292 292 292 293 293 293 293 293 293 293 293 294 293 293 293 292 292 292 292 292 293 293 293 294 295 295 294 293 293 292 291 291 290 289 288 288 286 286 286 286 286 287 287 288 288 289 289 289 288 288 288 289 289 289 290 290 291 291 291 291 291 291 291 291 291 291 291 290 290 290 290 290 290 290 290 289 289 289 288 287
296 296 296 295 294 294 294 294 294 294 295 295 295 295 295 295 296 296 295 295 294 293 292 292 292 292 293 293 294 295 295 294 294 293 293 292 292 290 289 289 288 288 288 287 288 289 289 290 290 290 290 290 290 290 290 291 291 292 292 292 293 293 293 293 293 293 293 292 292 292 292 292 292 292 292 291 291 291 291 291 291 291 290 290 289 289
296 296 297 296 296 295 295 296 296 296 297 297 297 298 298 298 297 297 296 295 294 294 293 293 293 293 293 294 295 295 294 294 294 294 293 292 291 290 289 289 290 290 290 290 291 291 292 292 291 291 292 292 292 293 293 294 294 295 295 295 295 294 294 294 294 294 293 293 293 293 293 293 293 293 293 293 292 292 292 292 291 291 290 289 288 288
296 297 297 297 297 297 297 298 298 299 299 299 299 300 300 299 299 297 297 296 296 295 294 294 294 294 295 296 297 297 296 296 296 294 293 292 292 291 291 291 292 292 292 293 293 293 293 293 294 294 294 295 295 295 296 296 296 296 296 296 296 295 295 295 294 294 294 294 294 294 294 294 293 293 293 293 293 292 292 291 291 290 289 288 287 286
300 300 300 300 299 300 300 300 300 301 301 301 301 301 300 300 299 298 297 297 296 296 295 296 296 296 298 299 299 299 298 297 296 295 294 293 293 293 293 293 293 294 295 295 295 295 295 296 296 296 296 296 297 297 297 297 297 297 297 297 296 296 295 295 295 295 295 295 295 295 295 294 294 294 294 294 293 293 292 291 290 289 288 288 286 285
303 303 304 304 303 303 304 303 303 303 302 303 303 302 301 300 299 298 297 297 296 296 296 297 297 298 300 301 300 299 297 296 295 294 294 293 293 294 294 295 295 296 296 296 296 296 297 297 298 298 298 298 298 298 298 298 298 297 297 296 296 296 296 296 296 296 296 296 296 296 296 296 296 296 295 294 294 293 292 291 290 289 288 288 286 285
306 306 307 307 305 305 305 305 304 304 304 303 302 301 301 300 299 298 298 297 297 297 297 297 297 299 301 301 299 297 296 296 295 294 294 293 294 295 296 296 296 297 297 297 297 298 299 299 299 299 299 299 299 298 298 297 297 296 296 296 297 297 297 297 297 298 298 298 298 297 297 297 296 295 295 294 293 292 291 291 290 289 288 287 286 285
309 308 309 308 307 306 305 305 305 304 304 303 302 302 301 300 300 299 299 299 298 298 298 298 298 300 302 300 298 297 296 295 295 294 294 295 296 297 298 298 298 298 299 299 299 300 300 300 300 299 299 298 298 298 297 297 297 298 298 298 299 299 299 299 299 299 299 298 298 297 297 296 295 294 294 293 292 291 290 289 289 288 287 286 285 284
309 308 308 307 306 305 306 306 305 305 304 303 303 303 302 302 301 300 300 300 300 300 300 299 299 302 301 299 298 297 296 296 296 296 297 298 299 299 299 299 299 300 300 300 301 301 301 300 300 299 298 298 298 298 298 299 299 300 300 300 300 300 300 300 299 299 299 298 298 297 296 295 295 294 293 292 291 290 289 288 287 286 286 285 284 283
310 309 308 307 306 306 306 307 306 305 305 305 305 305 304 303 302 301 301 301 301 301 300 299 300 301 300 299 298 297 297 298 299 299 300 300 300 300 301 301 301 301 301 301 301 301 300 299 299 298 299 299 299 300 300 301 301 301 301 301 300 300 300 300 300 299 299 298 297 296 296 295 295 294 293 292 291 290 289 288 287 286 285 284 283 282
310 310 309 309 308 308 308 308 307 306 306 306 307 307 305 304 303 302 303 303 303 303 302 302 302 302 301 300 300 299 300 300 301 302 302 302 302 302 302 302 302 302 301 301 300 299 299 299 300 300 301 301 302 302 302 302 302 301 301 301 301 301 301 300 300 299 298 298 297 297 296 295 295 294 293 292 291 290 289 288 287 287 286 285 284 283
311 311 310 309 309 310 310 310 309 308 308 308 308 307 306 305 305 305 306 305 305 304 304 303 303 302 301 301 301 301 302 302 303 303 302 302 302 302 302 302 301 301 300 300 300 300 301 302 302 303 303 303 303 303 302 302 302 302 302 302 302 301 301 300 300 299 299 298 298 297 297 296 295 294 293 293 292 291 290 290 289 288 287 287 286 284
312 311 310 309 310 311 311 311 310 310 310 309 308 307 306 306 306 306 306 304 303 303 303 303 302 302 301 302 302 302 302 302 302 302 301 302 302 302 302 301 301 302 302 302 303 303 303 304 304 304 304 303 303 303 303 303 303 303 303 302 301 301 301 301 301 300 300 299 299 298 297 297 296 295 295 294 293 293 292 292 291 290 289 288 287 286
313 312 311 310 312 313 312 312 312 311 310 309 309 308 307 307 307 307 306 304 304 304 304 303 303 303 303 303 303 303 303 303 303 303 303 303 304 303 303 303 304 304 304 304 305 305 305 305 304 304 304 304 304 304 304 304 304 303 303 302 302 302 302 302 302 301 301 300 300 299 298 298 297 297 296 296 296 295 294 294 293 292 291 290 289 288
314 314 313 313 314 314 313 313 313 312 311 311 310 309 308 308 308 307 306 306 306 306 306 306 305 305 305 306 305 305 305 306 306 305 305 305 305 305 305 306 306 306 306 306 306 306 306 305 305 305 305 305 305 305 305 304 304 304 304 304 304 304 304 303 303 302 301 301 301 300 300 299 299 299 299 298 298 297 297 296 295 294 293 292 291 289
316 315 315 315 316 315 314 314 313 313 312 311 310 309 309 308 308 308 308 308 308 309 308 308 307 306 307 307 307 307 307 307 307 306 306 307 307 307 307 307 307 307 308 307 307 307 306 306 306 307 307 306 306 306 305 305 305 305 305 305 305 305 304 304 304 303 303 302 302 301 301 301 301 301 301 300 300 299 299 298 297 296 295 293 292 290
318 318 318 317 317 316 315 314 314 313 312 312 311 310 310 310 310 310 310 310 310 309 308 307 307 307 307 308 308 308 308 308 308 308 308 308 308 309 309 309 309 309 308 308 307 307 307 307 307 307 307 307 307 306 306 306 306 306 306 306 306 306 305 305 305 304 304 304 303 303 303 303 303 303 303 302 302 301 300 299 298 297 296 295 293 292
320 319 319 318 317 316 315 315 314 313 313 312 311 311 311 312 312 312 311 311 310 309 308 308 308 309 309 309 309 310 310 310 310 310 310 311 311 311 311 310 310 309 309 309 308 308 308 308 308 308 308 308 308 308 308 308 308 307 307 307 307 306 306 306 305 305 305 305 305 304 304 305 305 304 304 303 303 302 301 301 300 299 298 296 294 293
321 320 319 319 318 317 316 315 315 314 313 313 313 313 313 313 313 312 312 312 311 311 311 311 311 311 311 311 311 312 312 312 313 313 313 313 313 312 311 310 310 310 310 310 309 309 309 309 310 310 310 309 309 309 309 309 308 308 308 308 308 307 307 307 307 306 306 306 306 306 306 306 306 305 305 304 304 303 303 302 301 300 299 297 296 294
321 321 320 319 319 318 317 316 315 315 315 316 316 316 315 314 314 314 314 314 313 312 312 313 313 313 313 314 314 314 315 315 315 315 314 313 312 312 311 311 311 311 311 311 310 311 311 311 312 312 312 311 311 310 310 310 309 309 309 309 309 309 308 308 308 308 308 308 308 307 307 307 307 306 306 305 305 304 304 303 302 301 300 299 298 296
322 322 321 320 319 318 317 317 318 319 319 319 318 317 316 316 315 314 314 314 313 313 314 315 315 316 316 316 316 316 317 317 316 315 313 313 312 312 312 312 313 313 312 312 312 313 314 314 314 314 313 312 312 311 311 311 311 311 311 311 310 310 309 309 309 309 309 309 308 308 308 307 307 307 307 306 306 305 305 305 304 303 302 301 299 298
323 322 321 320 320 320 320 320 321 321 321 320 319 318 317 317 316 315 315 316 317 317 317 318 317 317 317 317 317 317 317 317 316 314 313 313 313 313 314 314 314 314 314 315 315 316 316 316 316 315 314 313 313 313 312 313 313 312 312 312 311 311 310 310 310 310 310 309 309 309 308 308 308 307 307 307 307 307 307 306 306 305 304 303 301 300
323 322 322 323 323 323 323 323 323 322 322 321 320 319 319 318 319 319 320 321 320 320 320 319 319 319 318 318 318 317 316 316 316 314 314 315 315 315 315 315 316 316 317 317 318 318 318 318 317 315 315 315 315 314 314 314 314 313 313 312 312 312 311 311 311 311 310 310 309 309 309 309 308 308 308 308 309 309 308 308 307 308 307 305 303 302
326 326 326 326 326 325 325 325 324 324 323 323 322 321 321 322 322 322 322 322 322 321 321 321 320 320 319 319 318 318 317 317 318 317 316 317 317 317 317 317 318 319 320 320 320 320 319 318 317 316 316 315 315 315 314 314 314 314 314 313 313 312 312 312 312 311 310 310 310 310 309 309 309 309 310 310 311 311 310 309 310 311 308 305 304 305
328 327 326 326 326 326 326 326 325 325 325 324 324 324 324 324 323 323 323 323 324 323 322 322 321 321 321 320 320 319 319 319 320 320 319 319 319 319 320 321 321 322 322 321 321 320 319 318 317 317 316 316 315 315 314 315 314 314 314 314 313 313 313 312 312 311 311 311 310 310 310 310 310 310 311 312 312 312 311 313 314 313 309 308 309 309
328 328 328 329 329 329 328 327 326 326 326 325 325 325 325 324 324 324 324 324 324 324 323 323 323 322 322 321 321 321 321 321 321 321 321 321 321 322 323 323 324 323 323 322 321 320 319 319 318 317 317 316 316 315 315 315 315 315 314 314 314 313 313 313 313 312 312 312 311 311 311 311 311 311 312 313 312 313 315 317 318 316 313 313 315 314
333 333 333 333 332 330 328 327 326 326 327 327 326 326 325 325 325 325 325 325 325 325 325 325 324 324 323 323 322 322 322 322 321 322 322 323 324 325 325 325 325 323 322 322 321 320 320 319 319 318 318 317 317 317 316 316 316 316 315 314 314 314 314 314 314 313 312 312 312 312 312 313 312 312 313 313 314 317 319 320 322 321 319 319 320 319
337 336 335 333 332 330 329 328 328 328 329 328 327 327 327 326 326 326 327 327 327 327 327 326 325 324 324 324 323 323 323 323 323 324 325 325 326 326 326 325 324 323 322 322 321 321 321 320 320 319 319 318 318 318 318 317 317 317 316 315 315 315 315 315 315 314 313 313 313 313 314 314 313 313 314 315 318 320 321 324 326 324 323 324 325 323
338 336 334 333 332 331 330 330 330 330 330 330 329 329 328 328 328 328 329 329 329 329 328 328 327 326 325 325 325 324 324 325 325 326 327 327 327 327 326 325 324 324 323 323 323 322 322 321 321 321 320 319 319 319 319 318 318 318 317 317 317 317 317 317 316 316 315 314 314 315 315 315 315 316 317 320 322 322 323 328 331 327 326 329 329 327
338 335 334 332 332 332 332 332 332 331 331 331 331 330 330 330 330 330 330 331 331 330 330 329 328 327 327 326 326 326 326 327 327 328 328 328 328 327 327 326 326 325 325 325 324 324 323 323 322 322 321 321 320 320 320 319 319 319 319 319 319 319 319 320 319 318 316 315 316 317 317 318 318 320 322 323 323 323 325 332 335 330 329 333 333 332
337 335 334 333 333 334 334 333 333 332 332 332 332 331 331 331 331 332 332 332 332 332 332 330 329 328 327 326 327 327 327 328 328 329 329 329 328 328 327 327 327 327 326 326 325 325 324 324 324 323 323 322 321 321 321 321 321 321 321 321 321 322 323 323 322 320 318 319 321 321 321 321 323 324 324 324 324 326 329 337 339 334 333 337 337 337
338 337 336 335 335 335 335 335 334 333 333 333 333 332 332 332 333 333 333 334 334 333 332 330 329 328 327 327 328 328 328 329 329 330 329 329 329 329 329 329 329 328 327 327 326 326 325 325 325 324 324 323 323 322 323 323 323 323 324 324 324 325 326 326 324 322 321 323 325 324 324 325 326 326 325 325 327 330 333 341 345 339 336 339 342 342
339 338 338 337 337 336 336 335 335 334 333 333 333 333 332 333 334 334 335 335 334 333 332 330 329 328 328 329 329 329 330 330 331 331 330 330 330 330 330 330 330 329 329 328 327 327 327 327 326 326 325 325 325 325 325 325 326 326 326 327 327 328 329 329 327 325 326 328 329 328 328 328 327 327 329 331 333 334 335 343 351 346 339 341 346 348
340 339 338 338 337 337 336 335 334 334 334 333 333 333 333 334 335 335 336 335 335 334 332 330 329 329 329 330 330 331 331 331 331 331 331 331 332 332 332 332 331 330 330 329 329 329 328 328 328 327 327 327 327 328 328 328 329 329 329 330 331 332 333 333 331 330 331 333 332 331 331 330 329 330 333 337 341 340 338 342 352 352 345 343 349 354
340 339 338 338 337 337 336 335 335 335 334 334 333 334 334 335 336 336 336 335 335 334 332 331 330 330 331 331 331 332 332 332 331 332 332 332 333 334 334 333 333 332 331 331 331 330 330 329 329 329 329 330 330 330 331 331 332 333 333 334 335 336 336 335 335 334 335 336 334 333 332 331 331 334 338 342 347 347 344 343 348 354 352 349 351 356
340 339 338 338 338 338 337 336 336 335 335 335 334 335 335 336 336 336 336 336 335 334 333 332 331 331 331 331 332 332 332 332 332 333 333 334 334 335 335 334 334 333 333 332 332 332 331 331 331 331 332 332 332 333 334 335 335 335 336 337 338 338 338 338 338 338 338 338 336 334 333 334 336 340 344 347 349 351 352 349 347 350 355 356 355 358
Height
5752 5751 5751 5749 5747 5746 5746 5745 5744 5743 5742 5741 5740 5740 5739 5738 5738 5736 5733 5732 5731 5728 5725 5724 5724 5722 5720 5719 5717 5715 5713 5711 5709 5707 5705 5702 5700 5698 5696 5694 5692 5690 5688 5686 5684 5682 5680 5678 5676 5674 5672 5670 5668 5666 5665 5663 5660 5658 5656 5653 5651 5649 5647 5644 5642 5640 5638 5636 5634 5632 5630 5628 5625 5623 5621 5619 5617 5615 5613 5611 5609 5607 5605 5604 5602 5600
5749 5749 5747 5745 5744 5743 5742 5741 5740 5739 5738 5737 5736 5736 5735 5734 5733 5731 5729 5728 5726 5723 5720 5719 5718 5716 5715 5713 5711 5710 5708 5706 5704 5702 5700 5698 5695 5693 5690 5688 5686 5683 5681 5680 5678 5676 5674 5672 5670 5667 5665 5663 5661 5659 5658 5656 5654 5651 5648 5646 5643 5641 5639 5636 5634 5632 5630 5628 5626 5624 5622 5620 5618 5615 5613 5611 5609 5607 5605 5603 5601 5599 5597 5596 5594 5592
5746 5745 5743 5742 5741 5740 5739 5738 5736 5735 5734 5733 5732 5731 5731 5729 5728 5726 5725 5723 5721 5718 5716 5714 5713 5710 5709 5707 5705 5704 5702 5700 5698 5696 5694 5692 5690 5688 5685 5683 5680 5678 5676 5674 5672 5670 5668 5665 5663 5661 5658 5656 5654 5652 5651 5649 5647 5644 5641 5638 5636 5634 5631 5628 5626 5624 5622 5620 5618 5616 5614 5612 5610 5608 5605 5603 5601 5599 5597 5595 5592 5590 5588 5587 5585 5583
5743 5742 5740 5739 5737 5736 5735 5734 5733 5732 5730 5729 5728 5727 5726 5725 5723 5722 5721 5719 5716 5714 5712 5710 5707 5705 5704 5702 5699 5698 5696 5694 5692 5690 5688 5686 5684 5682 5679 5677 5675 5673 5671 5669 5666 5664 5662 5659 5656 5654 5651 5649 5647 5646 5645 5642 5639 5636 5633 5631 5629 5626 5623 5621 5618 5616 5614 5611 5609 5607 5605 5603 5601 5599 5597 5595 5593 5590 5588 5586 5584 5581 5579 5578 5576 5574
5740 5738 5737 5736 5734 5733 5732 5730 5729 5728 5727 5726 5724 5723 5722 5720 5719 5718 5716 5714 5711 5709 5707 5705 5702 5700 5698 5696 5694 5692 5690 5688 5686 5684 5682 5680 5678 5675 5672 5670 5669 5667 5664 5662 5661 5658 5655 5652 5650 5647 5644 5642 5640 5639 5637 5634 5631 5628 5626 5623 5621 5618 5615 5613 5610 5608 5605 5603 5601 5598 5597 5595 5592 5590 5588 5586 5584 5582 5579 5577 5575 5572 5570 5568 5566 5564
5737 5735 5734 5733 5731 5730 5729 5727 5726 5724 5723 5722 5720 5719 5717 5716 5714 5713 5711 5709 5706 5704 5702 5700 5696 5694 5693 5690 5688 5686 5684 5681 5680 5678 5676 5673 5671 5668 5666 5665 5663 5660 5658 5657 5654 5651 5648 5646 5644 5640 5637 5635 5633 5631 5628 5626 5623 5621 5618 5615 5613 5610 5607 5605 5602 5600 5597 5595 5592 5590 5588 5586 5584 5582 5579 5576 5574 5572 5570 5567 5565 5563 5560 5557 5555 5553
5734 5732 5731 5730 5728 5727 5725 5724 5723 5721 5720 5718 5717 5715 5713 5712 5710 5708 5707 5704 5702 5700 5697 5695 5692 5688 5686 5685 5682 5680 5677 5675 5673 5671 5669 5667 5665 5662 5660 5659 5657 5654 5652 5650 5648 5645 5642 5640 5637 5634 5631 5628 5626 5623 5621 5618 5616 5613 5611 5608 5605 5602 5600 5597 5594 5591 5589 5587 5584 5582 5580 5577 5575 5573 5571 5568 5565 5563 5560 5558 5556 5554 5551 5548 5545 5543
5731 5730 5728 5727 5725 5724 5722 5721 5719 5718 5716 5714 5713 5711 5709 5708 5706 5704 5702 5700 5697 5695 5693 5690 5687 5683 5680 5679 5676 5674 5671 5668 5667 5665 5663 5661 5659 5656 5654 5652 5651 5649 5647 5644 5642 5639 5636 5633 5630 5627 5624 5621 5619 5616 5613 5611 5608 5606 5603 5600 5597 5595 5592 5589 5586 5583 5581 5578 5576 5573 5571 5568 5565 5562 5560 5558 5556 5553 5551 5549 5546 5544 5542 5539 5536 5533
5728 5727 5725 5723 5722 5720 5719 5717 5715 5714 5712 5710 5709 5707 5705 5704 5702 5700 5698 5695 5693 5690 5688 5685 5681 5677 5674 5672 5670 5667 5664 5661 5661 5659 5656 5655 5653 5650 5648 5647 5645 5643 5641 5638 5635 5633 5629 5626 5623 5620 5617 5614 5612 5609 5606 5604 5601 5598 5595 5592 5589 5586 5583 5580 5578 5575 5572 5569 5566 5564 5561 5559 5556 5552 5550 5548 5545 5543 5541 5539 5537 5534 5532 5529 5526 5523
5725 5723 5722 5720 5718 5717 5715 5713 5712 5710 5708 5706 5705 5703 5701 5699 5697 5695 5693 5690 5688 5685 5682 5679 5675 5671 5668 5666 5663 5660 5657 5655 5655 5654 5651 5649 5648 5645 5643 5642 5639 5637 5634 5631 5629 5626 5623 5620 5617 5614 5610 5608 5605 5602 5599 5596 5593 5590 5587 5585 5581 5578 5575 5573 5570 5567 5564 5561 5557 5555 5552 5549 5546 5543 5541 5538 5536 5533 5530 5528 5526 5523 5521 5518 5516 5513
5722 5720 5718 5716 5715 5713 5711 5709 5708 5706 5704 5702 5700 5698 5697 5694 5692 5690 5688 5685 5682 5678 5676 5673 5669 5665 5662 5660 5657 5654 5651 5649 5649 5648 5645 5644 5642 5639 5637 5635 5633 5631 5627 5625 5622 5619 5616 5613 5610 5607 5604 5601 5598 5594 5591 5588 5585 5582 5579 5577 5573 5570 5568 5565 5561 5558 5555 5552 5549 5545 5542 5539 5536 5533 5530 5528 5525 5522 5519 5516 5514 5512 5509 5507 5504 5502
5718 5716 5714 5713 5711 5709 5707 5705 5703 5702 5700 5698 5696 5694 5692 5689 5687 5684 5682 5679 5676 5672 5669 5666 5664 5660 5656 5654 5652 5649 5646 5643 5644 5643 5640 5638 5636 5633 5631 5628 5626 5624 5621 5618 5615 5612 5609 5606 5603 5600 5596 5593 5590 5587 5584 5581 5578 5574 5571 5569 5565 5562 5559 5556 5552 5549 5546 5542 5539 5535 5531 5528 5525 5522 5518 5515 5512 5509 5506 5504 5502 5500 5497 5495 5492 5489
5715 5713 5711 5709 5707 5705 5703 5701 5699 5697 5696 5694 5691 5689 5686 5683 5681 5678 5676 5673 5670 5667 5663 5661 5658 5653 5650 5649 5646 5643 5640 5638 5638 5637 5634 5632 5630 5627 5624 5621 5619 5617 5613 5610 5607 5604 5601 5598 5595 5592 5588 5585 5582 5579 5576 5573 5570 5567 5564 5561 5557 5554 5551 5547 5543 5540 5536 5532 5528 5524 5521 5517 5514 5510 5506 5503 5500 5497 5493 5490 5488 5486 5484 5482 5480 5477
5711 5709 5707 5705 5703 5701 5699 5697 5695 5693 5691 5689 5686 5684 5681 5678 5674 5672 5670 5667 5664 5661 5658 5655 5652 5648 5646 5644 5641 5638 5635 5633 5632 5630 5627 5625 5623 5620 5617 5614 5612 5610 5606 5602 5599 5596 5593 5591 5587 5584 5581 5578 5575 5571 5568 5565 5562 5559 5556 5552 5548 5545 5541 5537 5533 5529 5526 5522 5517 5513 5510 5505 5501 5498 5495 5491 5487 5483 5480 5477 5474 5471 5469 5466 5464 5462
5708 5706 5703 5701 5699 5697 5695 5693 5690 5688 5685 5683 5681 5678 5675 5672 5669 5666 5664 5661 5659 5655 5652 5649 5646 5642 5640 5639 5636 5633 5631 5628 5626 5624 5621 5619 5616 5613 5610 5607 5604 5602 5598 5594 5592 5589 5586 5583 5580 5577 5573 5570 5567 5564 5560 5557 5553 5551 5547 5542 5538 5535 5531 5527 5522 5519 5515 5511 5506 5502 5497 5493 5489 5485 5482 5478 5474 5469 5465 5463 5459 5455 5452 5450 5447 5445
5704 5701 5699 5697 5694 5692 5690 5687 5685 5683 5680 5677 5675 5672 5670 5667 5664 5661 5658 5656 5653 5650 5647 5644 5641 5637 5636 5634 5631 5629 5626 5623 5621 5618 5615 5612 5610 5607 5603 5600 5597 5595 5591 5587 5585 5582 5579 5576 5573 5569 5566 5562 5559 5555 5551 5548 5544 5541 5537 5532 5528 5524 5520 5515 5511 5507 5503 5499 5494 5489 5484 5480 5476 5472 5467 5464 5460 5455 5450 5446 5442 5438 5435 5432 5429 5427
5699 5696 5693 5691 5689 5686 5684 5682 5679 5677 5674 5671 5669 5667 5664 5662 5659 5656 5653 5650 5648 5644 5642 5640 5636 5633 5631 5628 5626 5624 5621 5618 5615 5612 5609 5606 5603 5600 5596 5593 5591 5588 5584 5581 5578 5575 5572 5569 5565 5562 5558 5555 5551 5546 5542 5538 5534 5530 5526 5522 5518 5513 5508 5504 5499 5495 5490 5486 5482 5477 5471 5466 5462 5457 5452 5448 5444 5440 5435 5430 5425 5421 5419 5416 5411 5408
5693 5692 5688 5685 5683 5681 5678 5676 5674 5672 5669 5667 5664 5661 5659 5657 5654 5651 5648 5645 5643 5639 5636 5634 5632 5629 5626 5623 5621 5619 5615 5612 5609 5606 5603 5599 5597 5594 5590 5587 5584 5581 5577 5574 5571 5568 5565 5561 5558 5554 5550 5546 5541 5536 5532 5528 5524 5519 5514 5510 5506 5501 5497 5492 5487 5482 5478 5473 5469 5464 5458 5453 5447 5442 5437 5432 5427 5423 5419 5415 5409 5404 5401 5399 5394 5390
5688 5687 5684 5681 5678 5676 5674 5672 5669 5667 5665 5662 5660 5657 5655 5652 5649 5647 5644 5640 5638 5635 5631 5629 5626 5623 5621 5618 5615 5612 5609 5606 5602 5599 5596 5593 5590 5587 5584 5580 5577 5574 5570 5567 5564 5560 5557 5553 5549 5545 5540 5536 5531 5527 5523 5519 5514 5509 5504 5499 5494 5489 5484 5479 5474 5469 5464 5459 5454 5449 5444 5438 5433 5428 5423 5417 5412 5407 5403 5398 5393 5388 5384 5381 5378 5374
5683 5681 5680 5677 5674 5672 5670 5668 5665 5663 5660 5658 5656 5653 5651 5648 5645 5642 5639 5636 5633 5629 5626 5623 5620 5617 5615 5613 5610 5606 5603 5600 5596 5593 5590 5587 5584 5581 5578 5574 5571 5568 5564 5560 5556 5552 5548 5544 5539 5535 5531 5526 5522 5517 5513 5508 5503 5498 5493 5488 5482 5476 5471 5466 5461 5455 5450 5445 5439 5433 5428 5423 5417 5411 5406 5400 5394 5390 5386 5381 5376 5371 5368 5365 5362 5358
5679 5677 5675 5673 5670 5668 5666 5664 5661 5659 5656 5654 5652 5649 5646 5644 5640 5637 5635 5632 5628 5625 5621 5617 5614 5612 5610 5607 5604 5601 5598 5594 5591 5588 5585 5581 5578 5575 5572 5568 5565 5561 5557 5553 5549 5544 5540 5536 5531 5526 5521 5516 5511 5507 5502 5497 5492 5487 5482 5476 5470 5464 5459 5454 5448 5442 5436 5431 5424 5417 5411 5406 5400 5393 5388 5383 5377 5372 5368 5364 5360 5355 5353 5351 5348 5343
5675 5673 5671 5669 5666 5664 5662 5660 5657 5655 5653 5650 5648 5645 5642 5639 5636 5632 5629 5627 5624 5620 5617 5613 5609 5608 5606 5603 5599 5596 5593 5590 5586 5583 5580 5576 5573 5570 5566 5562 5558 5554 5550 5545 5541 5537 5532 5527 5522 5517 5512 5507 5502 5497 5492 5487 5482 5476 5471 5465 5458 5451 5445 5440 5434 5427 5421 5415 5408 5401 5394 5390 5384 5378 5372 5367 5363 5358 5353 5349 5346 5342 5339 5337 5334 5330
5672 5670 5668 5665 5663 5660 5658 5656 5654 5651 5649 5646 5643 5641 5637 5634 5631 5627 5624 5622 5619 5615 5613 5609 5605 5604 5602 5599 5595 5591 5588 5585 5581 5578 5574 5571 5567 5564 5560 5555 5550 5546 5542 5537 5533 5528 5524 5518 5513 5508 5503 5498 5493 5488 5482 5477 5471 5465 5459 5452 5445 5438 5431 5424 5418 5412 5406 5399 5392 5385 5379 5374 5370 5364 5359 5354 5349 5345 5341 5336 5333 5329 5326 5324 5321 5317
5669 5666 5664 5662 5659 5657 5654 5652 5650 5647 5644 5641 5639 5636 5633 5629 5626 5622 5619 5616 5614 5611 5608 5604 5601 5599 5597 5593 5590 5586 5582 5579 5575 5572 5568 5564 5560 5557 5553 5548 5543 5539 5534 5529 5525 5520 5514 5509 5504 5499 5494 5489 5483 5477 5471 5465 5458 5452 5445 5438 5430 5423 5416 5409 5403 5397 5390 5383 5377 5371 5364 5359 5355 5350 5346 5341 5336 5333 5329 5324 5320 5317 5313 5310 5307 5305
5665 5663 5660 5658 5656 5653 5651 5648 5646 5642 5639 5636 5634 5631 5628 5625 5621 5618 5615 5612 5609 5607 5604 5600 5597 5595 5592 5588 5584 5581 5577 5573 5569 5565 5561 5557 5553 5550 5545 5540 5535 5531 5526 5521 5516 5511 5506 5501 5495 5489 5483 5478 5471 5465 5458 5451 5445 5439 5431 5423 5415 5408 5401 5394 5387 5381 5374 5368 5362 5357 5351 5346 5341 5337 5333 5328 5324 5320 5316 5312 5308 5304 5300 5296 5293 5291
5662 5659 5656 5653 5650 5648 5646 5644 5641 5638 5635 5632 5629 5627 5623 5620 5617 5614 5611 5608 5605 5602 5599 5595 5592 5590 5586 5583 5579 5575 5571 5568 5564 5559 5554 5550 5546 5542 5537 5532 5527 5523 5518 5513 5508 5502 5497 5491 5485 5478 5472 5465 5458 5451 5444 5438 5432 5425 5418 5410 5401 5393 5387 5380 5373 5366 5360 5354 5348 5344 5339 5334 5329 5324 5320 5316 5311 5307 5303 5299 5295 5291 5287 5282 5279 5276
5658 5655 5652 5649 5646 5644 5642 5639 5636 5633 5631 5628 5625 5623 5619 5616 5613 5611 5607 5604 5601 5597 5594 5591 5588 5584 5581 5577 5573 5569 5565 5562 5558 5553 5548 5544 5540 5535 5530 5525 5520 5515 5509 5504 5499 5492 5486 5480 5473 5467 5460 5453 5446 5439 5432 5425 5418 5411 5404 5396 5387 5378 5372 5366 5360 5353 5347 5341 5336 5331 5326 5322 5317 5312 5307 5303 5298 5294 5290 5286 5281 5277 5273 5268 5263 5260
5655 5652 5648 5645 5643 5640 5638 5635 5632 5629 5626 5624 5621 5619 5616 5613 5610 5607 5604 5601 5598 5594 5591 5587 5583 5580 5576 5572 5568 5564 5560 5557 5552 5548 5543 5538 5534 5529 5524 5518 5512 5506 5500 5494 5488 5482 5476 5470 5463 5456 5450 5442 5435 5427 5420 5412 5404 5397 5390 5382 5374 5366 5359 5353 5347 5341 5335 5329 5324 5319 5314 5308 5303 5299 5294 5289 5285 5280 5275 5271 5267 5262 5257 5252 5247 5243
5651 5648 5645 5642 5639 5637 5634 5631 5628 5625 5622 5620 5617 5614 5612 5609 5606 5603 5600 5597 5593 5590 5586 5583 5578 5574 5571 5568 5563 5559 5555 5550 5546 5540 5535 5531 5526 5520 5515 5509 5502 5496 5490 5484 5477 5470 5464 5458 5451 5445 5438 5430 5422 5414 5407 5399 5391 5384 5376 5369 5361 5354 5347 5341 5335 5329 5323 5317 5311 5306 5301 5296 5291 5285 5280 5275 5270 5265 5260 5255 5250 5245 5240 5234 5229 5224
5647 5644 5641 5638 5636 5633 5630 5627 5625 5622 5619 5616 5613 5610 5608 5605 5602 5599 5596 5592 5588 5585 5581 5577 5573 5569 5565 5562 5557 5552 5547 5543 5538 5532 5527 5522 5517 5511 5505 5499 5493 5486 5480 5473 5466 5459 5452 5445 5438 5432 5424 5417 5409 5401 5394 5386 5378 5370 5362 5355 5349 5342 5336 5330 5324 5317 5311 5305 5299 5293 5287 5282 5277 5272 5266 5260 5255 5249 5244 5238 5233 5227 5222 5216 5210 5204
5644 5641 5638 5635 5632 5630 5627 5624 5621 5618 5615 5612 5609 5606 5604 5601 5598 5595 5591 5587 5583 5580 5576 5572 5568 5564 5560 5556 5551 5545 5540 5536 5530 5524 5519 5514 5508 5502 5496 5489 5483 5476 5470 5463 5455 5448 5440 5433 5426 5418 5410 5402 5394 5387 5380 5373 5366 5358 5351 5344 5337 5331 5325 5318 5311 5305 5299 5293 5287 5280 5274 5269 5264 5258 5252 5245 5239 5233 5227 5221 5215 5208 5203 5197 5190 5185
5640 5637 5634 5631 5629 5626 5623 5621 5618 5615 5612 5609 5605 5602 5599 5596 5593 5590 5586 5583 5579 5575 5571 5568 5564 5560 5555 5550 5545 5540 5534 5528 5522 5516 5510 5505 5499 5493 5486 5480 5472 5466 5459 5452 5445 5437 5429 5422 5414 5406 5398 5390 5381 5374 5366 5360 5355 5348 5341 5334 5327 5320 5314 5306 5299 5293 5287 5280 5274 5268 5261 5256 5250 5245 5237 5230 5223 5217 5210 5203 5197 5190 5183 5178 5171 5166
5637 5634 5631 5628 5625 5623 5620 5617 5614 5611 5608 5605 5602 5599 5596 5593 5590 5586 5583 5579 5575 5571 5566 5562 5558 5554 5549 5544 5539 5533 5527 5521 5514 5507 5500 5494 5488 5482 5475 5468 5462 5455 5448 5441 5433 5425 5418 5411 5403 5394 5386 5378 5371 5363 5355 5349 5343 5337 5331 5324 5317 5310 5303 5296 5288 5282 5276 5268 5260 5253 5247 5241 5235 5229 5222 5214 5207 5200 5193 5186 5179 5172 5165 5160 5154 5148
5634 5631 5628 5625 5622 5619 5616 5613 5611 5608 5604 5601 5598 5595 5592 5588 5586 5583 5579 5575 5570 5565 5560 5556 5552 5547 5542 5537 5531 5526 5519 5513 5506 5497 5489 5483 5477 5471 5465 5458 5451 5444 5437 5429 5421 5414 5407 5400 5392 5383 5374 5366 5359 5353 5346 5339 5333 5327 5320 5313 5307 5300 5292 5285 5278 5270 5263 5256 5247 5239 5233 5226 5220 5213 5206 5198 5191 5184 5177 5170 5164 5157 5149 5143 5138 5132
5631 5628 5625 5622 5619 5616 5613 5610 5607 5604 5600 5597 5593 5590 5587 5584 5581 5578 5575 5570 5565 5560 5555 5550 5545 5540 5535 5530 5524 5518 5512 5505 5497 5489 5481 5474 5467 5461 5454 5448 5441 5434 5426 5418 5410 5403 5395 5386 5379 5371 5363 5355 5348 5342 5336 5330 5323 5317 5310 5302 5295 5288 5281 5273 5266 5258 5250 5242 5233 5226 5218 5211 5204 5198 5190 5183 5176 5169 5162 5156 5149 5143 5136 5130 5124 5118
5628 5625 5622 5619 5617 5614 5610 5607 5603 5600 5597 5593 5589 5586 5582 5579 5576 5573 5570 5566 5560 5555 5550 5544 5539 5533 5527 5522 5516 5510 5504 5498 5490 5481 5474 5467 5459 5451 5443 5436 5430 5423 5414 5406 5398 5391 5383 5374 5366 5359 5352 5345 5338 5331 5325 5319 5312 5305 5299 5291 5283 5276 5268 5261 5254 5246 5237 5228 5220 5212 5204 5196 5190 5184 5177 5169 5163 5156 5149 5142 5136 5130 5124 5119 5113 5106
5625 5622 5619 5616 5613 5610 5607 5604 5600 5597 5593 5590 5585 5581 5577 5574 5570 5566 5564 5560 5554 5548 5543 5537 5532 5526 5520 5514 5509 5503 5498 5493 5485 5474 5466 5460 5451 5442 5433 5425 5418 5411 5403 5394 5387 5379 5372 5364 5356 5348 5342 5335 5327 5320 5313 5306 5299 5293 5286 5279 5272 5264 5257 5249 5242 5233 5224 5215 5206 5198 5190 5182 5175 5170 5164 5157 5151 5145 5138 5131 5125 5119 5113 5108 5102 5097
5623 5620 5617 5613 5610 5606 5603 5600 5597 5594 5590 5586 5581 5577 5572 5568 5563 5559 5555 5552 5546 5540 5535 5530 5524 5519 5513 5508 5502 5496 5490 5487 5481 5469 5457 5451 5443 5434 5426 5418 5409 5401 5392 5383 5376 5369 5362 5355 5348 5339 5331 5324 5316 5308 5300 5294 5288 5281 5274 5267 5259 5252 5245 5237 5229 5220 5212 5203 5194 5185 5177 5169 5162 5156 5151 5146 5140 5135 5129 5123 5117 5111 5104 5098 5092 5087
5620 5617 5613 5610 5607 5604 5600 5597 5593 5589 5586 5582 5578 5572 5567 5562 5557 5552 5548 5545 5540 5533 5528 5523 5517 5511 5505 5499 5493 5486 5478 5475 5472 5463 5450 5441 5433 5424 5418 5411 5402 5393 5384 5375 5367 5360 5353 5346 5340 5332 5324 5316 5308 5300 5292 5285 5278 5271 5263 5255 5247 5239 5232 5224 5215 5207 5198 5190 5182 5173 5165 5157 5150 5144 5139 5135 5131 5125 5120 5115 5110 5104 5097 5089 5084 5079
5618 5615 5612 5609 5605 5602 5598 5595 5590 5586 5582 5578 5573 5568 5562 5557 5552 5546 5541 5538 5533 5527 5521 5516 5510 5504 5498 5491 5484 5477 5467 5458 5455 5451 5442 5433 5424 5415 5407 5400 5392 5384 5377 5370 5362 5354 5346 5338 5330 5323 5317 5310 5302 5294 5286 5278 5270 5261 5252 5244 5235 5226 5218 5210 5202 5193 5185 5177 5170 5162 5155 5147 5140 5135 5130 5126 5122 5118 5113 5108 5103 5097 5090 5083 5078 5072
5616 5613 5610 5606 5603 5599 5595 5592 5588 5583 5578 5573 5569 5564 5558 5553 5548 5542 5536 5531 5527 5521 5515 5508 5502 5496 5490 5482 5475 5468 5459 5449 5441 5437 5431 5423 5416 5407 5398 5390 5383 5375 5368 5361 5355 5348 5340 5332 5322 5313 5306 5299 5292 5285 5278 5270 5262 5252 5243 5234 5224 5215 5207 5198 5189 5181 5172 5165 5158 5152 5146 5139 5132 5127 5123 5118 5115 5111 5106 5101 5096 5090 5084 5078 5073 5066
5613 5610 5606 5603 5599 5596 5592 5588 5584 5580 5575 5570 5564 5559 5554 5548 5543 5538 5532 5525 5520 5515 5508 5502 5495 5488 5481 5474 5466 5458 5451 5443 5435 5428 5422 5414 5407 5400 5392 5384 5377 5369 5362 5355 5347 5340 5333 5325 5316 5306 5297 5287 5280 5272 5266 5259 5251 5242 5232 5223 5214 5205 5196 5187 5179 5170 5162 5154 5147 5141 5137 5131 5126 5121 5117 5113 5109 5105 5101 5096 5090 5083 5077 5073 5067 5060
5610 5606 5602 5599 5596 5592 5587 5583 5579 5575 5570 5565 5560 5554 5549 5543 5537 5532 5526 5520 5513 5507 5501 5494 5487 5479 5472 5465 5458 5450 5443 5436 5429 5422 5414 5407 5399 5393 5386 5378 5371 5364 5357 5350 5342 5333 5325 5317 5309 5300 5289 5278 5269 5261 5252 5245 5238 5229 5219 5210 5201 5193 5185 5176 5168 5160 5152 5145 5139 5134 5129 5124 5120 5115 5112 5108 5104 5100 5096 5092 5085 5078 5073 5068 5062 5056
5607 5603 5599 5595 5591 5587 5582 5578 5573 5569 5564 5559 5554 5548 5543 5537 5531 5525 5520 5514 5507 5500 5494 5486 5478 5470 5462 5456 5449 5443 5436 5429 5422 5415 5408 5401 5394 5387 5380 5373 5365 5358 5350 5342 5334 5326 5317 5309 5301 5292 5281 5269 5259 5250 5241 5232 5225 5217 5208 5198 5190 5182 5175 5166 5158 5151 5144 5138 5133 5128 5124 5119 5114 5110 5107 5103 5099 5095 5092 5088 5082 5075 5069 5064 5058 5052
5605 5601 5597 5592 5588 5583 5578 5573 5568 5564 5559 5554 5549 5543 5537 5531 5526 5520 5513 5507 5501 5493 5486 5478 5470 5462 5455 5448 5442 5436 5429 5422 5415 5409 5402 5396 5389 5382 5375 5367 5359 5350 5342 5334 5326 5318 5309 5300 5291 5282 5272 5261 5250 5240 5230 5221 5213 5205 5197 5188 5179 5172 5165 5158 5150 5143 5136 5132 5127 5123 5119 5115 5110 5106 5102 5098 5095 5091 5088 5083 5078 5072 5067 5061 5055 5048
5602 5598 5594 5589 5584 5580 5574 5569 5564 5558 5554 5549 5544 5538 5532 5526 5520 5514 5508 5501 5493 5486 5478 5470 5462 5455 5448 5442 5436 5429 5423 5416 5410 5404 5397 5390 5383 5376 5368 5360 5352 5343 5334 5326 5318 5310 5302 5293 5283 5273 5263 5253 5241 5231 5221 5211 5202 5195 5187 5179 5171 5163 5156 5149 5143 5136 5131 5126 5123 5118 5114 5111 5107 5103 5099 5095 5091 5087 5083 5079 5075 5069 5064 5059 5052 5045
5600 5595 5590 5585 5580 5575 5570 5565 5560 5554 5549 5544 5538 5533 5527 5521 5515 5509 5502 5494 5487 5479 5471 5464 5456 5449 5442 5435 5429 5423 5417 5411 5405 5399 5391 5384 5377 5370 5362 5354 5345 5336 5327 5318 5309 5301 5292 5284 5275 5265 5255 5245 5234 5223 5213 5203 5194 5186 5178 5170 5164 5157 5151 5143 5137 5131 5127 5123 5119 5115 5111 5107 5104 5101 5097 5093 5088 5084 5080 5076 5072 5067 5061 5057 5052 5045
5597 5592 5587 5582 5577 5572 5567 5561 5556 5551 5545 5539 5534 5528 5522 5516 5510 5503 5496 5489 5481 5473 5465 5457 5449 5442 5436 5429 5422 5416 5411 5404 5398 5392 5385 5378 5371 5363 5355 5347 5338 5329 5320 5311 5301 5292 5283 5275 5266 5256 5246 5236 5226 5216 5206 5196 5187 5179 5171 5164 5157 5152 5146 5139 5133 5127 5123 5119 5115 5111 5108 5104 5102 5099 5095 5091 5085 5080 5076 5073 5071 5066 5060 5056 5051 5045
5594 5589 5585 5580 5574 5569 5564 5559 5554 5549 5542 5536 5530 5525 5518 5511 5505 5498 5490 5483 5475 5467 5459 5451 5443 5436 5429 5423 5417 5411 5404 5397 5391 5385 5378 5371 5364 5357 5349 5340 5331 5322 5313 5304 5294 5284 5275 5266 5256 5247 5236 5227 5217 5208 5199 5191 5182 5174 5166 5159 5152 5146 5141 5136 5130 5124 5120 5116 5112 5109 5106 5102 5099 5096 5093 5089 5084 5078 5072 5069 5068 5065 5060 5054 5049 5044
5591 5586 5581 5577 5572 5566 5561 5555 5549 5544 5538 5532 5525 5519 5513 5506 5499 5492 5485 5477 5469 5461 5453 5445 5437 5430 5423 5416 5411 5405 5399 5392 5386 5379 5372 5364 5357 5350 5341 5333 5325 5316 5306 5297 5287 5277 5267 5257 5247 5238 5228 5219 5210 5202 5194 5186 5178 5170 5162 5155 5148 5142 5136 5132 5127 5122 5118 5114 5110 5107 5104 5101 5098 5095 5091 5088 5084 5079 5072 5066 5063 5062 5059 5054 5048 5043
5588 5583 5578 5573 5567 5561 5556 5550 5544 5538 5532 5526 5520 5513 5507 5500 5493 5486 5479 5471 5463 5454 5446 5438 5431 5425 5418 5411 5405 5399 5393 5387 5380 5373 5366 5358 5350 5342 5334 5325 5317 5308 5299 5290 5280 5271 5261 5250 5240 5230 5221 5214 5206 5198 5190 5182 5174 5166 5158 5151 5143 5137 5131 5127 5123 5119 5115 5111 5108 5104 5102 5099 5096 5093 5090 5086 5082 5079 5075 5068 5062 5059 5057 5053 5049 5044